EW6762 Weather Reports


Display with metric or nautical units.
time (UTC)temp
F
wind
direction
speed
MPH
gust
MPH
rain 1hr
in
rain 24hr
in
rain mn
in
humidity
%
barometer
mb
20260507103310 70 159 5.0 11.0 0.28 1.77 0.42 95 1011.3
20260507102309 70 121 6.0 13.0 0.35 1.77 0.42 95 1011.2
20260507101325 70 116 5.0 10.0 0.35 1.73 0.41 95 1011.0
20260507100327 70 96 6.0 13.0 0.35 1.69 0.40 95 1011.3
20260507095324 70 166 7.0 11.0 0.35 1.61 0.38 95 1010.9
20260507094319 70 129 3.0 7.0 0.39 1.54 0.36 95 1011.1
20260507093321 70 140 3.0 7.0 0.47 1.50 0.35 95 1011.6
20260507092315 70 167 2.0 7.0 0.59 1.42 0.33 95 1011.8
20260507091311 70 195 2.0 8.0 0.75 1.38 0.32 95 1011.4
20260507090314 70 111 3.0 7.0 0.83 1.34 0.31 94 1011.0
20260507085331 70 136 4.0 8.0 0.83 1.26 0.29 95 1011.1
20260507084321 70 96 2.0 7.0 0.75 1.14 0.26 94 1011.4
20260507083317 70 186 3.0 7.0 0.63 0.98 0.22 94 1012.2
20260507082319 70 244 3.0 7.0 0.47 0.83 0.18 94 1012.5
20260507081333 70 201 3.0 7.0 0.31 0.63 0.13 94 1012.8
20260507080312 70 143 2.0 5.0 0.20 0.51 0.10 94 1012.8
20260507075327 70 171 2.0 5.0 0.12 0.43 0.08 94 1011.9
20260507074330 70 128 2.0 5.0 0.08 0.39 0.07 94 1011.8
20260507073339 70 163 2.0 5.0 0.04 0.35 0.06 94 1012.1
20260507072316 70 178 2.0 4.0 0.04 0.35 0.06 93 1012.4
20260507071330 70 253 3.0 5.0 0.00 0.31 0.05 93 1012.6
20260507070332 70 216 2.0 4.0 0.00 0.31 0.05 93 1012.7
20260507065333 70 170 2.0 4.0 0.00 0.31 0.05 93 1012.6
20260507064313 70 153 1.0 5.0 0.00 0.31 0.05 93 1012.3
20260507063330 70 155 2.0 4.0 0.00 0.31 0.05 93 1012.5
20260507062323 70 133 2.0 5.0 0.00 0.31 0.05 93 1012.7
20260507061315 70 159 3.0 5.0 0.00 0.31 0.05 92 1012.7
20260507060316 70 136 3.0 5.0 0.04 0.31 0.05 92 1012.4
20260507055350 70 148 2.0 4.0 0.08 0.31 0.05 92 1012.4
20260507054322 70 65 1.0 5.0 0.20 0.31 0.05 92 1012.4
20260507053322 71 145 2.0 4.0 0.20 0.31 0.05 92 1012.9
20260507052311 71 73 2.0 4.0 0.20 0.31 0.05 91 1013.0
20260507051329 71 184 2.0 5.0 0.20 0.31 0.05 91 1013.8
20260507050325 71 144 3.0 5.0 0.16 0.28 0.04 90 1013.9
20260507045316 71 132 3.0 6.0 0.16 0.24 0.03 90 1013.8
20260507044327 72 148 3.0 5.0 0.04 0.12 0.00 89 1014.1
20260507043326 72 185 2.0 4.0 0.04 0.12 0.00 89 1013.9
20260507042317 72 211 2.0 4.0 0.04 0.12 0.00 88 1013.8
20260507041310 72 200 2.0 3.0 0.12 0.12 0.00 88 1013.6
20260507040308 72 237 1.0 3.0 0.12 0.12 0.00 88 1013.4
20260507035321 73 155 2.0 4.0 0.08 0.08 0.02 85 1013.2
20260507034321 73 197 2.0 3.0 0.08 0.08 0.02 83 1013.4
20260507033317 74 148 1.0 6.0 0.08 0.08 0.02 81 1013.3
20260507032318 75 184 3.0 5.0 0.04 0.04 0.01 77 1013.9
20260507031318 76 170 2.0 7.0 0.00 0.00 0.00 72 1014.2
20260507030320 76 132 4.0 7.0 0.00 0.00 0.00 69 1013.8
20260507025314 76 190 3.0 5.0 0.00 0.00 0.00 70 1013.6
20260507024311 76 196 1.0 5.0 0.00 0.00 0.00 70 1013.1
20260507023313 76 113 2.0 6.0 0.00 0.00 0.00 70 1013.2
20260507022309 76 159 3.0 5.0 0.00 0.00 0.00 69 1013.0
20260507021311 76 120 1.0 4.0 0.00 0.00 0.00 69 1013.1
20260507020328 77 153 2.0 7.0 0.00 0.00 0.00 68 1013.1
20260507015332 77 146 3.0 5.0 0.00 0.00 0.00 69 1013.1
20260507014325 77 152 3.0 5.0 0.00 0.00 0.00 68 1013.1
20260507013327 77 136 3.0 6.0 0.00 0.00 0.00 68 1013.1
20260507012323 77 150 2.0 5.0 0.00 0.00 0.00 67 1013.3
20260507011320 78 146 3.0 5.0 0.00 0.00 0.00 67 1013.1
20260507010321 78 128 2.0 8.0 0.00 0.00 0.00 66 1013.1
20260507005317 78 158 2.0 6.0 0.00 0.00 0.00 65 1013.1
20260507004313 79 163 4.0 6.0 0.00 0.00 0.00 65 1013.2
20260507003335 79 191 3.0 6.0 0.00 0.00 0.00 64 1013.1
20260507002319 80 191 3.0 6.0 0.00 0.00 0.00 63 1013.2
20260507001314 80 164 3.0 9.0 0.00 0.00 0.00 63 1013.2
20260507000309 80 266 3.0 9.0 0.00 0.00 0.00 62 1013.1
20260506235309 81 180 4.0 8.0 0.00 0.00 0.00 61 1012.9
20260506234353 81 99 3.0 8.0 0.00 0.00 0.00 60 1012.8
20260506233327 82 194 5.0 10.0 0.00 0.00 0.00 60 1012.7
20260506232324 82 163 4.0 10.0 0.00 0.00 0.00 59 1012.8
20260506231328 83 232 4.0 11.0 0.00 0.00 0.00 58 1012.8
20260506230343 83 196 6.0 10.0 0.00 0.00 0.00 57 1013.0
20260506225324 84 170 5.0 12.0 0.00 0.00 0.00 57 1012.8
20260506224346 83 173 4.0 9.0 0.00 0.00 0.00 58 1012.7
20260506223320 83 155 5.0 11.0 0.00 0.00 0.00 58 1012.7
20260506222316 83 190 4.0 11.0 0.00 0.00 0.00 57 1012.6
20260506221319 83 101 4.0 10.0 0.00 0.00 0.00 57 1012.6
20260506220314 84 180 5.0 10.0 0.00 0.00 0.00 56 1012.5
20260506215334 84 166 4.0 14.0 0.00 0.00 0.00 56 1012.6
20260506214309 84 130 7.0 14.0 0.00 0.00 0.00 55 1012.8
20260506213309 85 134 5.0 15.0 0.00 0.00 0.00 55 1012.9
20260506212330 85 175 7.0 12.0 0.00 0.00 0.00 55 1013.0
20260506211324 85 135 8.0 18.0 0.00 0.00 0.00 56 1012.8
20260506210320 85 247 4.0 12.0 0.00 0.00 0.00 56 1012.7
20260506205320 84 189 5.0 11.0 0.00 0.00 0.00 57 1012.7
20260506204316 83 152 7.0 19.0 0.00 0.00 0.00 58 1012.8
20260506203334 82 111 3.0 12.0 0.00 0.00 0.00 60 1012.9
20260506202309 82 143 5.0 14.0 0.00 0.00 0.00 60 1013.2
20260506201322 81 140 3.0 5.0 0.00 0.00 0.00 62 1013.0
20260506200324 81 161 3.0 6.0 0.00 0.00 0.00 61 1012.4
20260506195313 82 191 4.0 13.0 0.00 0.00 0.00 60 1013.5
20260506194309 82 258 4.0 16.0 0.00 0.00 0.00 58 1014.4
20260506193324 83 224 8.0 14.0 0.00 0.00 0.00 58 1014.6
20260506192325 83 196 5.0 15.0 0.00 0.00 0.00 57 1014.6
20260506191319 83 224 7.0 11.0 0.00 0.00 0.00 58 1014.6
20260506190314 83 242 5.0 14.0 0.00 0.00 0.00 58 1014.6
20260506185315 83 202 7.0 17.0 0.00 0.00 0.00 57 1014.7
20260506184311 84 251 6.0 11.0 0.00 0.00 0.00 55 1014.9
20260506183332 84 134 7.0 14.0 0.00 0.00 0.00 55 1015.0
20260506182327 85 283 7.0 16.0 0.00 0.00 0.00 55 1015.2
20260506181324 84 199 5.0 16.0 0.00 0.00 0.00 57 1015.1
20260506180317 84 249 5.0 15.0 0.00 0.00 0.00 57 1015.4
20260506175312 84 114 6.0 16.0 0.00 0.00 0.00 59 1015.1
20260506174316 83 167 5.0 13.0 0.00 0.00 0.00 61 1015.5
20260506173323 82 170 5.0 10.0 0.00 0.00 0.00 61 1015.5
20260506172313 82 133 5.0 10.0 0.00 0.00 0.00 61 1015.8
20260506171312 81 156 7.0 17.0 0.00 0.00 0.00 60 1015.8
20260506170319 82 156 4.0 10.0 0.00 0.00 0.00 59 1015.8
20260506165316 82 205 4.0 19.0 0.00 0.00 0.00 60 1015.9
20260506164336 82 152 6.0 13.0 0.00 0.00 0.00 60 1015.9
20260506163329 80 144 3.0 9.0 0.00 0.00 0.00 63 1015.7
20260506162323 80 209 6.0 13.0 0.00 0.00 0.00 61 1015.7
20260506161325 80 211 4.0 15.0 0.00 0.00 0.00 62 1015.9
20260506160315 80 155 8.0 16.0 0.00 0.00 0.00 62 1016.0
20260506155332 79 140 5.0 15.0 0.00 0.00 0.00 63 1015.9
20260506154324 78 166 5.0 13.0 0.00 0.00 0.00 64 1015.9
20260506153322 78 153 4.0 12.0 0.00 0.00 0.00 64 1015.8
20260506152317 77 147 5.0 16.0 0.00 0.00 0.00 63 1015.3
20260506151310 77 137 7.0 17.0 0.00 0.00 0.00 63 1015.8
20260506150309 77 142 7.0 12.0 0.00 0.00 0.00 63 1016.0
20260506145320 77 159 5.0 11.0 0.00 0.00 0.00 64 1016.1
20260506144319 76 177 6.0 14.0 0.00 0.00 0.00 65 1016.2
20260506143315 76 218 6.0 12.0 0.00 0.00 0.00 65 1016.2
20260506142313 75 161 4.0 12.0 0.00 0.00 0.00 66 1016.2
20260506141326 75 83 6.0 15.0 0.00 0.00 0.00 67 1016.4
20260506140324 75 213 3.0 9.0 0.00 0.00 0.00 68 1016.3
20260506135335 74 148 6.0 16.0 0.00 0.00 0.00 68 1016.4
20260506134312 74 219 6.0 12.0 0.00 0.00 0.00 69 1016.6
20260506133325 73 161 4.0 9.0 0.00 0.00 0.00 71 1016.6
20260506132316 72 145 4.0 10.0 0.00 0.00 0.00 72 1016.8
20260506131338 72 207 4.0 14.0 0.00 0.00 0.00 72 1016.7
20260506130330 72 192 5.0 9.0 0.00 0.00 0.00 72 1016.6
20260506125325 71 197 3.0 8.0 0.00 0.00 0.00 75 1016.2
20260506124342 71 175 3.0 9.0 0.00 0.00 0.00 76 1016.1
20260506123314 70 108 5.0 9.0 0.00 0.00 0.00 76 1016.3
20260506122332 70 163 3.0 11.0 0.00 0.00 0.00 76 1016.1
20260506121348 69 209 3.0 8.0 0.00 0.00 0.00 77 1016.0
20260506120317 69 231 5.0 10.0 0.00 0.00 0.00 78 1015.9
20260506115328 68 152 3.0 7.0 0.00 0.00 0.00 79 1016.0
20260506114323 67 167 4.0 10.0 0.00 0.00 0.00 80 1015.8
20260506113322 66 161 6.0 11.0 0.00 0.00 0.00 81 1015.6
20260506112316 66 174 4.0 8.0 0.00 0.00 0.00 81 1015.7
20260506111311 65 161 4.0 10.0 0.00 0.00 0.00 82 1015.7
20260506110334 65 135 3.0 9.0 0.00 0.00 0.00 82 1015.6
20260506105309 65 140 3.0 10.0 0.00 0.00 0.00 82 1015.6
20260506104311 65 112 4.0 11.0 0.00 0.00 0.00 83 1015.6